Location: Caltech
(34.1382°N, 118.1253°W)
Time: 11:13:53
(UTC-07:00)

NOAA 19 - Visible Passes

Search period start: 01 August 2015 00:00
Search period end: 11 August 2015 00:00
Orbit: 842 x 863 km, 99.0° (Epoch: 31 July)

Date Brightness Start Highest point End Pass type
(mag) Time Alt. Az. Time Alt. Az. Time Alt. Az.
01 Aug 6.5 02:39:39 10° NE 02:44:29 32° E 02:44:32 32° E visible
01 Aug 6.2 04:20:26 10° N 04:25:08 29° WNW 04:26:34 25° W visible
02 Aug 6.9 02:28:45 10° NE 02:33:04 25° E 02:33:04 25° E visible
02 Aug 5.9 04:08:55 10° N 04:13:57 36° WNW 04:15:07 33° W visible
03 Aug 7.2 02:17:59 10° NE 02:21:36 19° E 02:21:36 19° E visible
03 Aug 5.6 03:57:29 10° N 04:02:45 46° WNW 04:03:38 42° W visible
04 Aug 7.5 02:07:30 10° ENE 02:10:08 15° E 02:10:08 15° E visible
04 Aug 5.2 03:46:06 10° N 03:51:31 59° WNW 03:52:10 55° WSW visible
05 Aug 7.8 01:57:43 10° ENE 01:58:40 11° E 01:58:40 11° E visible
05 Aug 5.1 03:34:46 10° N 03:40:18 76° WNW 03:40:42 72° WSW visible
06 Aug 5.1 03:23:30 10° NNE 03:29:03 85° ESE 03:29:14 82° SSE visible
06 Aug 7.2 05:07:25 10° NW 05:09:09 11° WNW 05:10:32 10° WNW visible
07 Aug 5.4 03:12:17 10° NNE 03:17:46 66° E 03:17:46 66° E visible
07 Aug 7.0 04:55:00 10° NNW 04:58:02 15° WNW 04:59:48 12° W visible
08 Aug 5.8 03:01:08 10° NNE 03:06:17 51° E 03:06:17 51° E visible
08 Aug 6.8 04:43:04 10° NNW 04:46:52 19° WNW 04:48:19 17° W visible
09 Aug 6.2 02:50:03 10° NNE 02:54:49 39° E 02:54:49 39° E visible
09 Aug 6.5 04:31:22 10° NNW 04:35:43 23° WNW 04:36:51 22° W visible
10 Aug 6.6 02:39:02 10° NE 02:43:21 30° E 02:43:21 30° E visible
10 Aug 6.2 04:19:46 10° N 04:24:32 30° WNW 04:25:23 28° W visible
